Weather History for KLWB - May, 2013

Change the Weather History Date:

Saturday, May 11, 2013

  Actual Average Record
Temperature  
Mean Temperature 58 °F 57 °F  
Max Temperature 64 °F 70 °F 87 °F (2015)
Min Temperature 51 °F 44 °F 32 °F (1997)
Degree Days  
Heating Degree Days 8    
Month to date heating degree days  
Since 1 July heating degree days  
Cooling Degree Days 0    
Month to date cooling degree days  
Year to date cooling degree days  
Growing Degree Days 8 (Base 50)    
Moisture  
Dew Point 49 °F    
Average Humidity 77    
Maximum Humidity 100    
Minimum Humidity 52    
Precipitation  
Precipitation 0.14 in - 0.14 in (2013)
Snow  
Snow 0.00 in - - ()
Month to date snowfall  
Since 1 July snowfall  
Snow Depth -    
Sea Level Pressure  
Sea Level Pressure 29.91 in    
Wind  
Wind Speed 4 mph (West)    
Max Wind Speed 15 mph    
Max Gust Speed 20 mph    
Visibility 8 miles    
Events Fog , Rain    
T = Trace of Precipitation, MM = Missing Value Source: NWS Daily Summary

Daily Weather History Graph

Daily Weather History Graph

Search for Another Location

Airport or City:

Trip Planner

Search our weather history database for the weather conditions in past years. The results will help you decide how hot, cold, wet, or windy it might be!

Date:

Astronomy

May. 11, 2013 Rise Set
Actual Time 6:14 AM EDT 8:21 PM EDT
Civil Twilight 5:45 AM EDT 8:50 PM EDT
Nautical Twilight 5:10 AM EDT 9:26 PM EDT
Astronomical Twilight 4:31 AM EDT 10:05 PM EDT
Moon 7:22 AM EDT (5/11) 9:59 PM EDT (5/11)
Length of Visible Light 15h 04m
Length of Day
14h 06m
Waxing Crescent, 3% of the Moon is Illuminated
May 11
Waxing Crescent
May 18
First Quarter
May 25
Full
May 31
Last Quarter
Jun 8
New

Hourly Weather History & Observations

Time (EDT) Temp. Dew Point Humidity Pressure Visibility Wind Dir Wind Speed Gust Speed Precip Events Conditions
12:15 AM 53.6 °F 51.8 °F 94% 29.98 in 2.5 mi Calm Calm - N/A   Overcast
12:35 AM 53.6 °F 51.8 °F 94% 29.98 in 1.2 mi Calm Calm - N/A   Overcast
12:55 AM 53.6 °F 51.8 °F 94% 29.98 in 0.5 mi Calm Calm - N/A Fog Fog
1:15 AM 53.6 °F 51.8 °F 94% 29.98 in 0.8 mi Calm Calm - N/A   Overcast
1:35 AM 53.6 °F 51.8 °F 94% 29.97 in 0.5 mi Calm Calm - N/A Fog Fog
1:55 AM 53.6 °F 51.8 °F 94% 29.96 in 0.8 mi Calm Calm - N/A   Overcast
2:15 AM 53.6 °F 51.8 °F 94% 29.96 in 4.0 mi Calm Calm - N/A   Overcast
2:35 AM 51.8 °F 50.0 °F 94% 29.95 in 0.5 mi Calm Calm - N/A Fog Fog
2:55 AM 51.8 °F 50.0 °F 94% 29.95 in 1.2 mi Calm Calm - N/A   Scattered Clouds
3:15 AM 51.8 °F 50.0 °F 94% 29.95 in 4.0 mi Calm Calm - N/A   Clear
3:35 AM 51.8 °F 51.8 °F 100% 29.95 in 4.0 mi SSW 3.5 mph - N/A   Clear
3:55 AM 51.8 °F 50.0 °F 94% 29.94 in 5.0 mi SW 3.5 mph - N/A   Scattered Clouds
4:15 AM 51.8 °F 50.0 °F 94% 29.93 in 4.0 mi Calm Calm - N/A   Scattered Clouds
4:35 AM 51.8 °F 50.0 °F 94% 29.93 in 1.0 mi Calm Calm - N/A   Overcast
4:55 AM 51.8 °F 50.0 °F 94% 29.92 in 4.0 mi Calm Calm - N/A   Mostly Cloudy
5:15 AM 51.8 °F 50.0 °F 94% 29.92 in 5.0 mi Calm Calm - N/A   Mostly Cloudy
5:35 AM 51.8 °F 50.0 °F 94% 29.91 in 4.0 mi Calm Calm - N/A   Mostly Cloudy
5:55 AM 51.8 °F 50.0 °F 94% 29.91 in 5.0 mi Calm Calm - N/A   Mostly Cloudy
6:15 AM 51.8 °F 50.0 °F 94% 29.92 in 7.0 mi SW 4.6 mph - N/A   Overcast
6:35 AM 53.6 °F 50.0 °F 88% 29.93 in 10.0 mi WSW 3.5 mph - N/A   Overcast
6:55 AM 53.6 °F 50.0 °F 88% 29.93 in 7.0 mi SSW 3.5 mph - N/A Rain Light Rain
7:15 AM 53.6 °F 50.0 °F 88% 29.93 in 7.0 mi Calm Calm - 0.01 in Rain Light Rain
7:35 AM 53.6 °F 50.0 °F 88% 29.93 in 5.0 mi SW 3.5 mph - 0.02 in Rain Light Rain
7:55 AM 53.6 °F 50.0 °F 88% 29.94 in 7.0 mi SW 5.8 mph - 0.04 in Rain Light Rain
8:15 AM 53.6 °F 50.0 °F 88% 29.93 in 5.0 mi SSW 4.6 mph - 0.02 in Rain Rain
8:35 AM 53.6 °F 50.0 °F 88% 29.93 in 5.0 mi SW 4.6 mph - 0.05 in Rain Rain
8:55 AM 53.6 °F 51.8 °F 94% 29.92 in 5.0 mi SW 6.9 mph - 0.08 in Rain Light Rain
9:15 AM 53.6 °F 51.8 °F 94% 29.92 in 7.0 mi SSW 5.8 mph - N/A Rain Light Rain
9:35 AM 55.4 °F 51.8 °F 88% 29.92 in 10.0 mi WSW 8.1 mph - 0.01 in   Overcast
9:55 AM 55.4 °F 51.8 °F 88% 29.93 in 10.0 mi WSW 9.2 mph - 0.01 in   Overcast
10:15 AM 55.4 °F 51.8 °F 88% 29.92 in 10.0 mi SW 5.8 mph - N/A Rain Light Rain
10:35 AM 57.2 °F 51.8 °F 82% 29.93 in 10.0 mi SW 9.2 mph - N/A   Overcast
10:55 AM 59.0 °F 51.8 °F 77% 29.93 in 10.0 mi West 9.2 mph 18.4 mph N/A   Overcast
11:15 AM 59.0 °F 51.8 °F 77% 29.92 in 10.0 mi SW 10.4 mph - N/A   Overcast
11:35 AM 59.0 °F 50.0 °F 72% 29.92 in 10.0 mi SW 9.2 mph 17.3 mph N/A   Overcast
11:55 AM 60.8 °F 50.0 °F 68% 29.92 in 10.0 mi West 10.4 mph - N/A   Overcast
12:15 PM 60.8 °F 50.0 °F 68% 29.92 in 10.0 mi WSW 11.5 mph - N/A   Mostly Cloudy
12:35 PM 62.6 °F 50.0 °F 63% 29.91 in 10.0 mi WSW 11.5 mph 16.1 mph N/A   Mostly Cloudy
12:55 PM 62.6 °F 46.4 °F 55% 29.91 in 10.0 mi SW 11.5 mph - N/A   Mostly Cloudy
1:15 PM 62.6 °F 48.2 °F 59% 29.91 in 10.0 mi WSW 13.8 mph 19.6 mph N/A   Overcast
1:35 PM 62.6 °F 46.4 °F 55% 29.90 in 10.0 mi West 8.1 mph 18.4 mph N/A   Overcast
1:55 PM 64.4 °F 46.4 °F 52% 29.89 in 10.0 mi WSW 12.7 mph 19.6 mph N/A   Mostly Cloudy
2:15 PM 64.4 °F 46.4 °F 52% 29.89 in 10.0 mi West 9.2 mph - N/A   Mostly Cloudy
2:35 PM 64.4 °F 46.4 °F 52% 29.89 in 10.0 mi WSW 10.4 mph 18.4 mph N/A   Mostly Cloudy
2:55 PM 64.4 °F 46.4 °F 52% 29.88 in 10.0 mi WSW 8.1 mph 18.4 mph N/A   Mostly Cloudy
3:15 PM 64.4 °F 46.4 °F 52% 29.88 in 10.0 mi WNW 9.2 mph - N/A   Mostly Cloudy
3:35 PM 64.4 °F 48.2 °F 56% 29.87 in 10.0 mi NW 10.4 mph 16.1 mph N/A   Scattered Clouds
3:55 PM 64.4 °F 46.4 °F 52% 29.87 in 10.0 mi WNW 9.2 mph - N/A   Mostly Cloudy
4:15 PM 62.6 °F 48.2 °F 59% 29.88 in 10.0 mi WSW 15.0 mph - N/A Rain Light Rain
4:35 PM 60.8 °F 50.0 °F 68% 29.87 in 10.0 mi WSW 8.1 mph - N/A   Overcast
4:55 PM 64.4 °F 48.2 °F 56% 29.86 in 10.0 mi West 10.4 mph 16.1 mph N/A   Mostly Cloudy
5:15 PM 64.4 °F 48.2 °F 56% 29.86 in 10.0 mi West 8.1 mph 17.3 mph N/A   Scattered Clouds
5:35 PM 62.6 °F 46.4 °F 55% 29.87 in 10.0 mi WNW 10.4 mph 18.4 mph N/A   Scattered Clouds
5:55 PM 60.8 °F 46.4 °F 59% 29.87 in 10.0 mi NW 8.1 mph - N/A   Scattered Clouds
6:15 PM 60.8 °F 48.2 °F 63% 29.86 in 10.0 mi WNW 4.6 mph - N/A   Mostly Cloudy
6:35 PM 60.8 °F 48.2 °F 63% 29.88 in 10.0 mi WNW 4.6 mph - N/A   Overcast
6:55 PM 60.8 °F 48.2 °F 63% 29.87 in 10.0 mi WNW 3.5 mph - N/A Rain Light Rain
7:15 PM 57.2 °F 50.0 °F 77% 29.88 in 7.0 mi NW 4.6 mph - 0.01 in Rain Light Rain
7:35 PM 55.4 °F 48.2 °F 77% 29.89 in 10.0 mi WNW 4.6 mph - 0.01 in   Overcast
7:55 PM 57.2 °F 48.2 °F 72% 29.88 in 10.0 mi WNW 3.5 mph - 0.01 in   Overcast
8:15 PM 55.4 °F 46.4 °F 72% 29.89 in 10.0 mi WNW 5.8 mph - N/A   Mostly Cloudy
8:35 PM 55.4 °F 46.4 °F 72% 29.88 in 10.0 mi WNW 8.1 mph - N/A   Mostly Cloudy
8:55 PM 55.4 °F 46.4 °F 72% 29.89 in 10.0 mi WNW 6.9 mph - N/A   Overcast
9:15 PM 55.4 °F 46.4 °F 72% 29.89 in 10.0 mi WNW 5.8 mph - N/A   Mostly Cloudy
9:35 PM 53.6 °F 46.4 °F 77% 29.90 in 10.0 mi NW 6.9 mph - N/A   Mostly Cloudy
9:55 PM 53.6 °F 44.6 °F 72% 29.90 in 10.0 mi West 6.9 mph - N/A   Overcast
10:15 PM 53.6 °F 44.6 °F 72% 29.91 in 10.0 mi WNW 5.8 mph - N/A   Overcast
10:35 PM 53.6 °F 44.6 °F 72% 29.91 in 10.0 mi West 6.9 mph - N/A   Overcast
10:55 PM 53.6 °F 44.6 °F 72% 29.91 in 10.0 mi WNW 4.6 mph - N/A   Overcast
11:15 PM 51.8 °F 42.8 °F 71% 29.91 in 10.0 mi NW 5.8 mph - N/A   Mostly Cloudy
11:35 PM 51.8 °F 42.8 °F 71% 29.91 in 10.0 mi West 4.6 mph - N/A   Mostly Cloudy
11:55 PM 51.8 °F 42.8 °F 71% 29.91 in 10.0 mi WNW 8.1 mph - N/A   Mostly Cloudy